星链-36562(STARLINK-36562)

导读 | 豆包AI

STARLINK-36562是美国太空探索技术公司星链星座的一员,于2026年1月25日发射入轨。星链项目旨在构建全球卫星互联网,该卫星承担着为全球偏远地区、海洋空域提供低延迟宽带网络覆盖的任务,进一步扩充了星链星座的规模,推进了全球全域互联的布局。

基本信息
目录编号:
67570
目录名称:
STARLINK-36562
国际标识:
2026-016K
轨道中心:
EARTH
卫星名称:
星链-36562
卫星全名:
星链-36562(STARLINK-36562)
卫星状态:
在轨 (已飞行120 天)
发射日期:
2026-01-25 UTC
国别 :
美国 (US)
星等 :
--
轨道信息
数据来源 国际轨道数据
星历时间: 2026-05-24T11:45:30+0800
1天前
查看轨道信息
半长轴: 6843.698km
偏心率: 0.0000546
轨道倾角: 97.285°
近地点辐角 120.363°
升交点赤经 204.566°
平近点角 239.767°
近地点: 465.187km
远地点: 465.935km
周期: 93.907分钟
每日圈数: 15.334393
详细信息
固有亮度:
5
最大亮度:
2.5
卫星平台:
Starlink V1.0
覆盖范围:
全球
运营商:
太空探索技术公司
运营商所在国:
美国
制造商(研发单位):
太空探索技术公司
制造商所在国:
美国
使用方式:
暂无
卫星简介
Starlink 计划是 SpaceX 推出的全球卫星互联网项目,通过发射低轨道卫星,为全球尤其是偏远地区提供高速、低延迟的互联网服务。自 2019 年起,Starlink 已部署数千颗卫星,旨在缩小全球数字鸿沟,推动互联网普及。该项目还为军事、航空等行业提供通信支持,带来广泛经济效益。
2D轨道图
3D轨道图
轨道高度分析图
轨道倾角分析图
轨道综合分析图
查看轨道综合分析图